Temperature
13 13 13 13 13 13 12 12 12 12 12 12 12 12 11 11 11 11 11 11 11 11 11 11 10 10 10 10 10 10 10 10 10 10 10 10 10 10 10 10 10 11 11
12 12 12 12 12 12 12 12 12 12 11 11 11 11 11 11 11 11 11 11 11 11 10 10 10 10 10 10 10 10 10 9 9 9 9 9 9 10 10 10 10 10 10
12 12 12 12 12 12 12 12 11 11 11 11 11 11 11 10 10 10 10 10 10 10 10 10 10 10 9 9 9 9 9 9 9 9 9 9 9 9 9 9 9 9 9
12 12 11 12 12 11 11 11 11 11 11 11 10 10 10 10 10 10 10 10 9 9 9 9 9 9 9 9 9 8 8 8 8 8 8 8 8 8 8 8 9 9 9
11 11 11 11 11 11 11 11 11 10 10 10 10 10 10 10 10 9 9 9 9 9 8 8 9 9 8 8 8 8 8 8 7 7 7 7 7 8 8 8 8 8 8
11 11 11 11 11 11 10 10 10 10 10 10 10 9 9 9 9 9 8 8 8 8 8 8 8 8 8 8 7 7 7 7 7 7 7 7 7 7 7 7 7 8 8
10 10 10 10 10 10 10 10 9 9 9 9 9 8 8 8 8 8 8 8 8 7 7 7 7 7 7 7 7 7 6 6 6 6 6 6 7 7 7 7 7 7 7
10 10 10 10 10 10 9 9 9 9 9 8 8 7 7 7 7 7 7 7 7 7 7 7 7 6 6 6 6 6 6 6 6 6 6 6 6 6 6 6 6 6 6
9 9 9 9 9 9 9 9 8 8 8 8 7 7 6 7 6 7 7 7 6 6 6 6 6 6 6 5 5 5 5 5 5 5 5 5 5 5 6 6 6 6 6
9 9 9 9 9 9 8 8 8 7 7 7 7 7 6 6 5 5 6 6 6 6 6 6 6 5 5 5 5 5 5 5 5 5 5 5 5 5 5 5 5 5 5
9 9 8 8 8 8 8 8 7 7 7 7 7 6 6 6 5 5 5 5 5 5 5 5 5 5 5 4 4 4 5 5 4 4 5 5 4 4 5 5 5 5 4
9 8 8 8 8 8 7 7 7 7 7 6 6 6 6 5 5 4 4 4 4 5 5 5 4 4 4 4 4 4 4 4 4 4 4 4 4 4 4 4 4 4 4
8 8 8 8 7 7 7 7 7 6 6 6 6 6 6 5 5 4 4 3 3 4 4 4 4 4 4 3 3 3 4 4 4 4 4 4 4 4 4 3 3 3 3
8 8 7 7 7 7 7 6 6 6 6 6 6 6 5 5 5 4 4 3 2 3 3 4 4 3 3 3 3 3 3 3 3 3 3 3 3 3 3 3 3 3 3
8 7 7 7 7 6 6 6 6 6 6 5 5 5 5 5 4 4 3 3 2 2 2 3 3 3 3 3 3 2 2 2 3 3 3 3 3 2 2 2 2 2 2
7 7 7 6 6 6 6 6 6 5 5 5 5 5 4 4 4 3 3 3 2 1 1 2 2 2 2 2 2 2 2 2 2 2 2 2 2 2 2 2 2 2 2
7 6 6 6 6 6 5 5 5 5 5 5 4 4 4 3 3 3 3 2 2 1 1 1 2 2 2 2 2 2 2 1 1 1 1 1 1 1 1 1 1 1 1
6 6 6 6 5 5 5 5 5 4 4 4 4 4 3 3 3 3 2 2 2 1 1 1 1 1 1 1 1 1 1 1 1 1 1 1 1 1 1 1 1 1 1
6 6 5 5 5 5 4 4 4 4 4 3 3 3 3 3 2 2 2 2 1 1 1 0 0 1 1 1 1 1 1 1 1 1 1 1 0 0 0 0 0 0 0
5 5 5 5 5 4 4 4 4 3 3 3 3 3 2 2 2 2 1 1 1 1 0 -0 -0 0 0 0 -0 -0 0 0 0 0 0 0 0 0 0 0 -0 -0 0
5 5 4 4 4 4 3 3 3 3 3 2 2 2 2 2 1 1 1 1 1 0 -0 -1 -1 -0 -0 -1 -1 -1 -1 -1 -1 -1 -1 -0 -0 -0 -0 -0 -1 -0 -0
4 4 4 4 3 3 3 3 3 2 2 2 2 2 2 1 1 1 1 1 0 -0 -1 -1 -1 -1 -1 -1 -1 -2 -2 -2 -2 -1 -1 -1 -1 -1 -1 -1 -1 -1 -1
4 4 3 3 3 3 3 2 2 2 2 2 2 1 1 1 1 1 0 0 0 -0 -1 -1 -1 -1 -2 -2 -2 -2 -2 -2 -2 -2 -2 -2 -1 -1 -1 -1 -1 -1 -1
3 3 3 3 3 2 2 2 2 2 2 1 1 1 1 0 0 0 -0 -0 -0 -0 -1 -1 -1 -1 -2 -2 -2 -2 -2 -2 -2 -2 -3 -2 -2 -2 -1 -1 -1 -1 -1
3 3 2 2 2 2 2 2 1 1 1 1 0 0 0 0 -0 -0 -1 -1 -1 -1 -1 -1 -1 -1 -1 -2 -2 -2 -2 -3 -3 -2 -3 -3 -2 -2 -1 -1 -1 -1 -1
2 2 2 2 2 2 1 1 1 1 0 0 0 0 -0 -0 -0 -1 -1 -1 -1 -1 -1 -1 -1 -1 -1 -2 -2 -2 -3 -3 -3 -3 -3 -3 -3 -3 -3 -2 -2 -2 -2
Wind_Speed
4 4 3 3 3 3 2 2 2 3 3 3 3 3 3 3 3 3 3 7 8 8 8 9 9 10 11 11 12 12 12 13 13 14 14 14 15 15 16 16 17 17 18
4 3 3 3 2 2 2 2 2 2 2 2 3 3 2 2 2 3 3 4 7 8 9 9 10 11 11 12 12 13 13 14 14 15 15 15 16 16 17 18 18 19 19
4 3 2 2 2 2 1 2 2 2 2 2 2 3 2 2 2 3 3 3 4 6 8 9 10 11 12 12 13 13 14 15 15 16 16 17 17 17 18 18 19 20 20
4 3 2 2 2 1 1 1 1 2 2 2 2 2 2 1 2 2 2 3 4 5 7 9 11 11 12 13 13 14 15 15 16 16 17 17 18 18 19 20 20 20 20
4 3 2 2 1 1 1 1 1 1 2 3 3 2 2 1 1 1 2 3 4 5 6 7 9 10 12 13 14 14 15 16 17 17 18 19 19 19 20 20 21 21 21
4 3 3 2 2 1 1 1 2 2 2 2 2 2 2 1 1 2 2 3 3 5 7 8 8 8 11 13 14 15 16 17 18 19 19 20 20 20 21 21 22 22 22
4 3 2 2 1 1 1 1 1 2 2 2 2 2 1 1 2 2 2 3 3 5 7 8 8 9 9 11 13 15 17 18 19 20 20 20 21 21 22 22 22 22 22
4 3 3 2 2 1 1 1 1 1 1 2 2 2 2 2 1 2 3 3 4 5 6 8 9 9 10 10 11 15 17 19 20 21 21 22 22 22 23 23 23 23 23
4 4 3 2 2 1 1 0 0 0 1 1 2 2 2 2 4 3 3 4 4 5 7 8 9 10 11 11 12 14 17 20 21 21 22 23 23 24 24 24 24 24 24
5 4 3 3 2 1 1 1 0 1 1 1 1 1 3 3 3 3 3 4 6 7 8 8 9 9 11 11 12 15 19 21 21 22 23 24 24 25 25 25 25 25 25
4 4 4 3 2 1 1 1 1 1 1 2 2 2 2 3 4 4 6 7 7 7 7 9 8 9 10 11 12 15 20 21 22 23 23 24 24 25 25 24 24 24 24
4 4 4 3 3 2 2 2 2 2 2 2 2 2 2 3 3 4 6 8 9 8 9 8 7 8 10 12 14 17 20 22 22 23 24 24 24 24 24 24 24 24 24
4 4 4 3 3 3 2 2 2 2 2 3 3 3 3 4 4 5 6 8 9 9 8 7 7 8 10 12 13 18 20 21 22 23 23 23 24 24 24 24 24 24 24
4 5 4 4 3 3 3 3 2 2 2 3 3 3 3 4 4 4 5 6 8 8 8 9 8 8 10 13 15 19 18 20 22 23 23 24 24 24 24 24 23 24 24
4 5 5 4 3 3 3 3 2 2 2 3 3 3 4 4 4 4 5 5 6 8 10 9 8 9 12 14 16 17 18 19 22 22 23 23 24 24 24 24 24 24 24
4 5 4 4 3 3 3 2 2 2 2 2 3 3 4 4 4 4 5 5 6 8 9 9 10 12 13 14 17 17 17 20 20 20 22 23 24 24 23 23 23 24 24
5 5 4 4 3 3 3 2 2 2 2 3 3 4 4 5 4 5 5 5 6 7 10 11 11 12 14 14 14 15 16 16 15 19 21 22 23 23 23 23 23 23 23
4 4 4 3 3 2 2 2 2 2 2 3 3 4 5 4 6 5 5 6 6 7 9 13 12 12 14 14 14 15 14 14 14 18 20 21 22 22 22 22 22 23 23
4 4 3 3 2 2 2 2 2 2 2 3 3 4 5 5 6 5 6 6 6 7 8 10 12 11 12 12 14 14 15 13 14 16 18 19 20 21 21 21 22 22 22
4 4 3 2 2 2 2 1 1 2 2 3 3 4 5 5 6 7 6 7 7 8 8 9 10 11 11 12 12 12 13 13 13 13 14 17 18 18 19 19 20 21 21
4 4 3 2 1 1 1 1 1 2 3 3 4 4 4 6 7 7 6 7 7 7 8 8 9 10 11 12 12 11 13 13 13 10 12 13 13 12 13 16 17 20 21
4 3 3 2 1 0 1 1 1 2 3 3 4 5 5 5 6 8 9 9 8 8 8 8 9 11 12 13 12 12 12 13 10 9 12 13 11 11 11 11 17 20 20
4 3 2 2 1 0 1 1 1 2 3 3 4 4 4 5 6 6 7 8 8 9 10 9 10 11 12 12 13 13 13 13 12 12 11 11 11 11 11 13 18 19 20
3 2 2 1 1 0 1 1 1 2 3 3 4 4 5 5 5 7 7 7 8 8 8 8 9 10 11 11 11 11 12 13 12 9 9 9 11 11 11 11 15 17 20
3 2 2 1 1 0 1 1 2 2 2 3 4 4 5 5 6 8 7 8 9 8 8 10 12 12 14 14 12 9 10 10 10 9 8 7 9 11 10 9 11 17 18
3 2 1 1 0 0 1 1 2 1 2 3 3 4 5 5 7 8 6 7 8 9 9 10 10 10 10 10 11 8 8 8 9 7 7 7 8 8 7 7 9 12 12
Wind_Direction
110 105 95 89 83 75 70 56 50 46 39 32 25 20 19 19 15 10 23 22 15 12 7 2 355 348 343 340 338 333 330 326 322 318 314 310 305 301 298 297 295 294 292
116 115 106 88 77 71 61 55 48 37 32 27 23 17 10 11 10 3 8 21 22 13 6 0 355 350 345 341 338 335 330 327 324 320 315 310 306 303 300 297 294 292 290
124 120 110 99 77 65 79 65 51 30 29 21 12 11 11 6 358 360 359 354 4 13 5 357 352 348 345 341 338 335 332 329 327 324 320 314 307 303 301 298 295 291 289
129 124 114 101 89 73 71 66 32 17 15 0 354 356 356 349 338 347 356 358 354 352 360 359 351 348 344 341 337 334 331 330 327 325 323 319 315 307 302 299 296 294 291
140 132 119 111 109 84 65 55 24 6 6 358 350 342 335 317 326 342 355 359 358 348 343 348 347 345 342 339 336 332 331 329 326 323 321 318 314 311 307 302 298 295 292
148 136 126 123 117 103 67 39 36 23 15 356 342 336 322 296 283 316 328 338 345 340 337 335 333 336 337 335 334 332 331 328 325 322 320 317 314 310 307 304 301 297 294
153 144 134 134 133 118 81 48 42 41 28 4 339 334 305 261 262 301 303 309 325 330 329 330 328 327 327 330 331 332 330 326 324 321 319 317 315 312 309 307 304 301 297
160 158 155 149 143 132 115 82 56 38 26 7 338 323 312 277 264 296 292 296 307 320 324 325 324 324 322 322 325 327 327 326 323 321 319 317 315 313 310 307 306 303 300
169 168 168 161 154 154 152 132 121 336 339 356 345 319 311 309 318 273 283 290 307 315 317 320 319 320 320 320 321 326 327 324 321 319 318 316 315 312 310 309 306 304 302
173 173 171 173 169 168 174 189 250 278 262 283 313 320 307 302 292 299 290 294 305 308 312 313 314 316 317 317 318 319 323 321 319 318 317 316 315 313 312 311 308 306 304
176 177 178 179 181 187 196 212 234 257 264 268 278 290 286 283 273 284 297 306 306 304 308 307 307 311 315 316 315 319 321 318 317 317 316 315 315 314 313 313 311 309 306
180 182 185 187 192 198 207 222 240 248 261 269 273 271 279 282 287 287 292 302 305 306 306 302 304 311 314 316 315 319 318 316 315 316 316 316 316 315 314 313 311 309 308
189 192 194 199 202 212 218 225 241 251 257 263 270 280 278 278 284 284 287 297 301 302 303 301 306 311 314 317 317 321 316 315 316 316 316 317 316 315 314 313 311 309 308
194 192 198 205 209 214 218 224 237 249 260 267 276 285 283 281 283 283 286 297 303 301 301 304 311 308 317 317 318 318 315 316 318 317 317 317 317 316 315 314 313 312 310
187 189 195 202 207 214 219 226 236 247 264 270 281 285 287 288 286 286 287 287 292 302 306 308 315 314 319 317 317 316 315 318 318 317 317 316 316 317 316 315 313 312 311
181 185 191 198 203 210 219 229 241 252 261 275 286 288 291 291 290 290 290 289 285 288 291 301 309 313 316 315 318 317 316 316 315 317 318 318 318 317 317 317 316 314 313
177 183 187 193 200 208 219 228 244 255 262 278 286 290 293 296 297 297 297 294 292 291 290 300 307 313 316 318 319 319 318 317 316 318 318 319 320 319 319 318 318 317 315
173 179 182 188 195 204 216 230 246 256 264 278 290 292 294 298 298 299 298 297 296 295 295 301 309 316 318 320 320 320 321 319 316 318 318 318 318 319 320 320 319 318 317
164 170 176 182 189 199 211 231 243 258 275 285 292 292 297 300 300 302 300 300 300 301 299 300 307 315 316 321 322 321 320 319 319 319 319 319 320 321 320 320 320 321 320
160 164 168 172 180 192 208 234 258 268 289 300 301 297 297 298 299 304 304 305 306 305 305 304 308 315 319 322 323 324 324 324 320 319 320 320 320 321 320 322 322 324 325
154 155 155 152 156 172 222 254 262 281 290 302 307 303 301 303 306 308 308 309 311 308 309 309 313 317 321 327 327 323 320 320 317 319 323 321 321 321 323 323 324 328 330
141 144 147 149 150 146 334 313 302 284 291 297 304 307 306 301 306 306 309 311 309 307 310 311 311 315 318 322 322 320 319 320 317 324 321 315 318 318 319 322 327 330 330
140 140 143 151 165 136 331 301 309 295 293 297 303 307 310 312 312 314 314 313 309 308 307 305 305 311 313 318 318 317 316 314 307 312 315 308 315 316 318 321 325 331 333
147 147 150 160 170 250 334 317 307 292 298 307 305 305 305 309 321 326 319 316 314 314 314 309 306 309 312 314 314 309 308 308 304 307 315 307 316 318 318 317 325 333 337
149 151 155 151 161 47 353 344 325 304 308 315 314 310 309 311 326 329 319 315 316 320 322 318 316 314 315 317 321 319 319 321 318 317 325 314 315 319 315 316 327 334 337
150 150 147 152 144 22 18 6 345 322 320 322 323 317 313 321 326 325 316 315 318 323 326 325 325 325 325 326 330 323 318 316 316 314 331 328 319 327 319 317 328 332 335
Height
1536 1536 1536 1536 1536 1535 1535 1534 1534 1533 1532 1532 1531 1530 1529 1528 1527 1526 1525 1524 1522 1521 1519 1518 1516 1514 1512 1510 1508 1507 1505 1503 1501 1499 1497 1495 1494 1492 1490 1489 1487 1485 1484
1535 1535 1535 1535 1534 1534 1534 1533 1532 1532 1531 1530 1529 1528 1528 1527 1526 1525 1523 1522 1520 1519 1517 1515 1513 1511 1509 1507 1505 1503 1501 1499 1497 1495 1493 1491 1489 1487 1485 1483 1481 1480 1478
1534 1534 1534 1533 1533 1533 1532 1532 1531 1531 1530 1529 1528 1527 1526 1525 1524 1523 1521 1520 1518 1516 1514 1512 1510 1508 1506 1504 1501 1499 1497 1495 1493 1490 1488 1486 1484 1482 1480 1478 1475 1473 1472
1532 1532 1532 1532 1532 1531 1531 1530 1530 1529 1528 1527 1526 1525 1524 1523 1522 1521 1519 1517 1516 1514 1512 1509 1507 1505 1503 1500 1498 1496 1493 1491 1488 1486 1484 1481 1479 1476 1474 1472 1469 1467 1465
1530 1531 1531 1530 1530 1530 1530 1529 1529 1528 1527 1526 1524 1523 1522 1521 1520 1518 1517 1515 1513 1511 1509 1507 1504 1502 1499 1497 1494 1492 1489 1487 1484 1481 1479 1476 1474 1471 1468 1465 1463 1461 1458
1529 1529 1529 1529 1528 1528 1528 1527 1527 1526 1525 1524 1522 1521 1520 1519 1517 1516 1515 1513 1511 1509 1507 1504 1502 1499 1496 1493 1491 1488 1485 1483 1480 1477 1474 1471 1468 1465 1462 1459 1457 1454 1452
1527 1527 1527 1527 1527 1526 1526 1526 1525 1524 1523 1522 1521 1519 1518 1517 1515 1514 1513 1511 1509 1507 1505 1502 1499 1496 1493 1490 1487 1484 1481 1478 1475 1472 1469 1466 1463 1460 1456 1453 1450 1447 1445
1524 1525 1525 1525 1525 1525 1524 1524 1523 1522 1521 1521 1520 1518 1517 1517 1514 1512 1511 1509 1507 1505 1502 1500 1497 1494 1490 1487 1484 1480 1477 1474 1471 1468 1464 1461 1457 1454 1450 1447 1444 1441 1438
1522 1523 1523 1523 1523 1523 1523 1522 1522 1521 1520 1520 1519 1519 1518 1515 1512 1510 1508 1506 1505 1502 1500 1497 1494 1491 1487 1484 1480 1477 1473 1469 1466 1463 1459 1455 1452 1448 1444 1440 1437 1433 1430
1520 1520 1521 1521 1521 1521 1521 1520 1520 1519 1519 1518 1517 1517 1516 1514 1513 1508 1507 1505 1502 1500 1497 1494 1491 1487 1484 1480 1477 1473 1469 1465 1461 1457 1454 1450 1446 1442 1438 1434 1429 1426 1422
1517 1518 1518 1519 1519 1519 1518 1518 1518 1518 1517 1517 1516 1514 1513 1512 1511 1508 1504 1501 1499 1497 1494 1491 1487 1484 1481 1477 1472 1468 1465 1460 1456 1452 1448 1444 1439 1435 1431 1427 1422 1418 1414
1514 1515 1516 1516 1516 1516 1516 1516 1516 1515 1515 1514 1513 1512 1511 1510 1508 1506 1502 1498 1495 1493 1490 1487 1484 1481 1477 1473 1468 1464 1460 1456 1451 1447 1442 1438 1433 1429 1424 1420 1415 1411 1407
1511 1512 1513 1513 1514 1514 1514 1514 1513 1513 1512 1512 1511 1510 1508 1506 1505 1503 1500 1496 1492 1488 1486 1484 1481 1477 1473 1469 1464 1460 1455 1451 1446 1441 1437 1432 1427 1423 1418 1413 1408 1404 1400
1509 1509 1510 1511 1511 1511 1511 1511 1511 1510 1510 1509 1508 1506 1505 1503 1502 1500 1498 1494 1488 1484 1482 1480 1477 1473 1469 1465 1460 1455 1450 1446 1441 1436 1431 1426 1421 1416 1411 1406 1402 1397 1393
1506 1507 1507 1508 1508 1508 1508 1508 1508 1507 1506 1506 1505 1503 1502 1500 1498 1496 1494 1492 1490 1483 1477 1474 1472 1469 1465 1461 1455 1450 1446 1441 1435 1431 1426 1421 1415 1410 1405 1400 1395 1391 1386
1503 1504 1504 1505 1505 1505 1505 1505 1505 1504 1503 1502 1501 1500 1498 1497 1495 1493 1491 1489 1486 1482 1476 1471 1468 1465 1460 1456 1451 1446 1441 1435 1430 1425 1420 1415 1410 1404 1399 1394 1390 1385 1380
1500 1501 1501 1502 1502 1502 1502 1502 1501 1501 1500 1499 1498 1497 1495 1494 1492 1490 1487 1485 1482 1479 1473 1467 1465 1461 1456 1451 1446 1442 1436 1431 1425 1421 1416 1410 1405 1400 1394 1389 1384 1379 1374
1497 1498 1498 1499 1499 1499 1499 1499 1499 1498 1497 1496 1495 1493 1492 1490 1488 1486 1484 1481 1478 1475 1471 1464 1460 1456 1452 1447 1442 1437 1432 1427 1422 1416 1411 1406 1400 1395 1390 1384 1379 1374 1368
1494 1495 1495 1496 1496 1497 1497 1496 1496 1495 1494 1493 1492 1490 1489 1487 1485 1483 1480 1477 1474 1471 1468 1463 1456 1453 1448 1444 1438 1433 1428 1423 1417 1412 1407 1402 1396 1391 1385 1380 1374 1369 1363
1491 1492 1493 1493 1494 1494 1494 1494 1493 1493 1491 1490 1489 1487 1485 1484 1482 1479 1477 1474 1471 1468 1464 1460 1454 1449 1445 1440 1435 1429 1423 1418 1413 1408 1403 1398 1392 1387 1381 1376 1370 1365 1359
1488 1489 1490 1491 1491 1491 1491 1491 1491 1490 1489 1487 1486 1484 1482 1480 1478 1476 1474 1471 1468 1464 1461 1457 1452 1447 1442 1437 1432 1427 1421 1415 1409 1405 1399 1394 1389 1383 1378 1372 1367 1361 1356
1486 1487 1487 1488 1489 1489 1489 1489 1488 1487 1486 1484 1483 1481 1479 1477 1475 1473 1471 1468 1465 1462 1458 1454 1450 1445 1440 1436 1430 1425 1420 1413 1406 1402 1397 1391 1387 1380 1375 1370 1364 1359 1353
1483 1484 1485 1486 1486 1487 1487 1486 1485 1485 1483 1482 1480 1478 1476 1474 1472 1470 1467 1465 1462 1459 1456 1453 1448 1443 1438 1433 1428 1423 1418 1412 1406 1401 1395 1388 1384 1378 1373 1367 1362 1357 1351
1481 1482 1483 1484 1484 1484 1484 1484 1483 1482 1480 1479 1477 1475 1473 1471 1469 1466 1464 1461 1459 1456 1453 1449 1445 1441 1436 1431 1427 1422 1416 1410 1404 1400 1395 1387 1381 1376 1370 1365 1360 1355 1350
1480 1481 1481 1482 1482 1482 1482 1481 1480 1479 1477 1476 1474 1473 1471 1469 1467 1464 1461 1458 1455 1453 1450 1446 1442 1438 1434 1429 1425 1419 1414 1408 1402 1397 1394 1388 1380 1374 1368 1363 1359 1354 1349
1478 1479 1480 1480 1480 1480 1479 1479 1478 1476 1475 1473 1471 1470 1468 1466 1464 1461 1459 1456 1452 1449 1446 1442 1439 1435 1431 1426 1422 1418 1413 1408 1402 1396 1392 1387 1381 1375 1367 1362 1358 1354 1349